This is the latest recevied weather packets stored in our database for station/object W5ITZ. If no packets are shown the sender has not sent any weather packets the latest 10 day(s).
| Time | Temp. | Humidity | Pressure | Rain* | Wind** | Luminosity | Snow |
|---|---|---|---|---|---|---|---|
| 1777838293 | 26.11° C | 35% | 1020.6 hPa | 0 mm | - | 901 W/m² | - |
| 1777837990 | 26.67° C | 34% | 1020.7 hPa | 0 mm | - | 905 W/m² | - |
| 1777837687 | 26.67° C | 36% | 1020.8 hPa | 0 mm | - | 916 W/m² | - |
| 1777837383 | 26.67° C | 36% | 1020.9 hPa | 0 mm | - | 925 W/m² | - |
| 1777837079 | 26.67° C | 35% | 1020.5 hPa | 0 mm | - | 936 W/m² | - |
| 1777836775 | 26.11° C | 36% | 1020.9 hPa | 0 mm | - | 937 W/m² | - |
| 1777836471 | 26.11° C | 35% | 1021 hPa | 0 mm | - | 947 W/m² | - |
| 1777836166 | 26.67° C | 35% | 1021 hPa | 0 mm | - | 960 W/m² | - |
| 1777835863 | 26.67° C | 38% | 1020.9 hPa | 0 mm | - | 960 W/m² | - |
| 1777835560 | 26.11° C | 32% | 1021.2 hPa | 0 mm | - | 966 W/m² | - |
| 1777835257 | 26.67° C | 34% | 1021.3 hPa | 0 mm | - | 972 W/m² | - |
| 1777834954 | 26.11° C | 33% | 1021.3 hPa | 0 mm | - | 972 W/m² | - |
| 1777834651 | 26.11° C | 32% | 1021.4 hPa | 0 mm | - | 985 W/m² | - |
| 1777834347 | 25.56° C | 33% | 1021.3 hPa | 0 mm | - | 986 W/m² | - |
| 1777834041 | 25.56° C | 32% | 1021.6 hPa | 0 mm | - | 991 W/m² | - |
| 1777833738 | 25.56° C | 33% | 1021.5 hPa | 0 mm | - | 996 W/m² | - |
| 1777833434 | 26.11° C | 34% | 1021.5 hPa | 0 mm | - | 996 W/m² | - |
| 1777833132 | 26.11° C | 35% | 1021.7 hPa | 0 mm | - | 995 W/m² | - |
| 1777832830 | 25.56° C | 34% | 1021.9 hPa | 0 mm | - | 996 W/m² | - |
| 1777832528 | 25.56° C | 36% | 1022 hPa | 0 mm | - | 1000 W/m² | - |
| 1777832224 | 25.56° C | 33% | 1022.1 hPa | 0 mm | - | 1000 W/m² | - |
| 1777831921 | 25.56° C | 31% | 1022.4 hPa | 0 mm | - | 1002 W/m² | - |
| 1777831618 | 25.56° C | 34% | 1022.1 hPa | 0 mm | - | 999 W/m² | - |
| 1777831316 | 25.56° C | 33% | 1022.3 hPa | 0 mm | - | 998 W/m² | - |
| 1777831013 | 25.56° C | 39% | 1022.3 hPa | 0 mm | - | 994 W/m² | - |
* Rain latest hour (hover to see other rain measurements)
** Current wind speed in m/s (hover to see current wind gust speed)